sat.trackr.live / text

‹ back to catalog

STARLINK-30239

NORAD 57291 · 2023-096B

PAYLOAD ACTIVE UNKNOWN

§ Identity

Operator
Country
US
Launch date
2023-07-10
Launch site
AFETR
Launch vehicle
Mass (kg)
RCS (m²)

Purposes: comms

External: N2YO · Heavens-Above · Gunter

§ Orbital elements

Epoch: 2026-09-20T22:00:03.000096Z

Period
91.91 min
Inclination
42.9993°
Eccentricity
0.0001668
Mean motion
15.66701247 rev/d
Perigee alt
367.2 km
Apogee alt
369.5 km
Semi-major
6,746.5 km
B*
5.6072e-3
RAAN
192.3462°
Arg perigee
267.5147°
Mean anomaly
326.1869°
Rev number
585

§ Raw data

STARLINK-302391 57291U 23096B   26263.91670139  .00657336  00000+0  56072-2 0  99902 57291  42.9993 192.3462 0001668 267.5147 326.1869 15.66701247  5854

JSON: /api/v1/satellites/57291 · /tle

For live sub-satellite position, see the globe view (requires WebGL).

§ Visibility from observer

Set your observer location to see the next 7 days of passes ≥ 10°. The values pass through the URL so the page stays shareable.

No JS? Fill the form by hand. The geolocation button needs JavaScript.